GSAT-15

Last updated on Thu Nov 21 2024 00:02:43 GMT+0000 (Coordinated Universal Time)

1 41028U 15065A 24325.54661373 -.00000257 00000+0 00000+0 0 9996 2 41028 0.0187 274.1670 0003193 308.5205 127.6639 1.00271105 33040
UTC large
Height (km)
Speed (km/s)
/
Latitude / Longitude
Inclination (degrees)
Orbital Period (minutes)
Azimuth
Elevation
Range (km)
Doppler Factor

Next 0 passes for location: London (51.5072 / 0.1276)

Sorry there are no passes over London.